Погода в Робервале

Канада     48°31′01″N   72°13′29″W
темп.,
°C
ветер,
м/с
пор.,
м/с
влажн.,
%
обл.,
%
осадки,
мм/ч
давл.,
гПа
погр.,
м
22 января, сб
сб2201:00−22ю37945 0.0 1034144
04:00−22ю37937 0.0 1032136
07:00−22ю37939 0.0 1030138
10:00−17ю498314 0.0 1028256
13:00−12ююз51072100 0.0 1022405
16:00−12ю51176100 0.0 1018393
19:00−14ююз71471100 0.0 1015382
22:00−14ююз71770100 0.0 1011529
23 января, вс
вс2301:00−13ююз71584100 0.1 1006523
04:00−12ююз71582100 0.0 1002488
07:00−12ююз71582100 0.0 1001518
10:00−16з71079100 0.0 1004660
13:00−17зсз6873100 0.0 10061005
16:00−19зсз488099 0.0 1009413
19:00−26зюз349377 0.0 1012128
22:00−28юз339320 0.0 1014119
24 января, пн
пн2401:00−28юз349311 0.0 1014123
04:00−29юз349554 0.0 101462
07:00−28юз379459 0.0 1015177
10:00−22юз488644 0.0 1014351
13:00−17юз5877100 0.0 1012936
16:00−15ююз3685100 0.0 1012297
19:00−17ююз5118740 0.1 1013356
22:00−17ююз4108898 0.0 1013214
25 января, вт
вт2501:00−16ю3888100 0.0 1013216
04:00−14ю2690100 0.0 1013214
07:00−13ю2591100 0.1 1013200
10:00−11юз1485100 0.1 1013399
13:00−10с4393100 0.8 1013390
16:00−12ссз5792100 0.8 1015504
19:00−17сз61093100 0.8 1019356
22:00−21сз61089100 0.1 1022366
26 января, ср
ср2601:00−25сз6108898 0.1 1024320
04:00−28сз599111 0.0 1025235
07:00−29сз599311 0.0 1026228
10:00−26ссз588610 0.0 1027330
13:00−21ссз588138 0.0 1024562
16:00−20ссз598389 0.0 1025433
19:00−22сз6118890 0.0 1027342
22:00−26сз6108872 0.0 1028264